Location: Gorzów Wielkopolski
(52.7333°N, 15.2500°E)
Time: 10:41:31
(UTC+02:00)

ISS - Visible Passes

Search period start: 26 September 2018 00:00
Search period end: 06 October 2018 00:00
Orbit: 403 x 408 km, 51.6° (Epoch: 26 September)

Date Brightness Start Highest point End Pass type
(mag) Time Alt. Az. Time Alt. Az. Time Alt. Az.
26 Sep -3.2 20:12:12 10° SW 20:15:19 39° SSE 20:16:23 29° ESE visible
26 Sep -1.0 21:48:19 10° W 21:49:04 16° W 21:49:04 16° W visible
27 Sep -2.6 19:20:38 10° SSW 19:23:32 28° SSE 19:26:26 10° E visible
27 Sep -3.4 20:56:28 10° WSW 20:59:15 56° SW 20:59:15 56° SW visible
28 Sep -3.6 20:04:38 10° WSW 20:07:52 57° SSE 20:09:23 28° E visible
28 Sep -1.2 21:40:58 10° W 21:42:03 19° W 21:42:03 19° W visible
29 Sep -3.2 19:12:51 10° SW 19:16:00 44° SSE 19:19:11 10° E visible
29 Sep -3.7 20:49:03 10° W 20:52:07 69° SW 20:52:07 69° SW visible
30 Sep -3.8 19:57:08 10° WSW 20:00:26 71° S 20:02:08 26° E visible
30 Sep -1.3 21:33:35 10° W 21:34:48 20° W 21:34:48 20° W visible
01 Oct -3.7 20:41:38 10° W 20:44:47 68° SSW 20:44:47 68° SSW visible
02 Oct -3.8 19:49:40 10° W 19:52:59 75° S 19:54:46 25° E visible
02 Oct -1.3 21:26:10 10° W 21:27:26 20° W 21:27:26 20° W visible
03 Oct -3.5 20:34:10 10° W 20:37:25 54° SSW 20:37:25 54° SSW visible
04 Oct -3.7 19:42:11 10° W 19:45:28 66° S 19:47:23 22° ESE visible
04 Oct -1.2 21:18:49 10° W 21:20:03 18° WSW 21:20:03 18° WSW visible
05 Oct -2.9 20:26:42 10° W 20:29:47 37° SSW 20:30:03 36° S visible
